Weather in Sernovodskoye

Russia / Stavropol Krai     43°51′31″N   44°47′26″E
temp.,
°C
wind,
m/s
gust,
m/s
humid.,
%
clouds,
%
prec.,
mm/h
press.,
hPa
HPBL,
m
15 april, thu
thu1500:00+9w3579100 0.0 101898
03:00+8wsw46846 0.0 101890
06:00+8w36865 0.0 1018130
09:00+15w45591 0.0 1018678
12:00+19wnw45411 0.0 10161342
15:00+20nnw4433100 0.0 10161824
18:00+17n3350100 0.0 101629
21:00+13ne115611 0.0 101810
16 april, fri
fri1600:00+12nnw0060100 0.0 101810
03:00+10wnw1166100 0.0 101810
06:00+11ssw116660 0.0 101910
09:00+17e225073 0.0 1019538
12:00+21e45395 0.0 10171535
15:00+22e55345 0.0 10161948
18:00+19e474992 0.0 1016152
21:00+13e3671100 0.4 1018100
17 april, sat
sat1700:00+12e116999 0.2 101810
03:00+11nw2272100 0.2 101716
06:00+10wnw2275100 0.0 101834
09:00+14nnw6777100 0.0 1022838
12:00+13nnw5572100 0.1 1022887
15:00+14wnw3370100 0.3 1022769
18:00+12wnw4676100 0.0 1023362
21:00+11wnw1283100 0.1 102498
18 april, sun
sun1800:00+11wsw1181100 0.1 102216
03:00+10ne1183100 0.1 102215
06:00+10e2384100 0.0 1021122
09:00+14e336960 0.1 1020807
12:00+18e345776 0.0 10181207
15:00+19e3352100 0.0 10181483
18:00+16ene3568100 0.2 1019209
21:00+12ene588399 0.9 1020343
19 april, mon
mon1900:00+12ene2388100 0.2 1022165
03:00+12ese1188100 0.3 102235
06:00+12ene2488100 0.0 1022163
09:00+14ene3381100 0.0 1023479
12:00+18e4464100 0.0 10221097
15:00+19e4455100 0.0 10211370
18:00+17e3659100 0.0 1021148
21:00+12e81565100 0.0 1021434